Change the Weather History Date:

Saturday, September 29, 2012

  Actual Average Record
Temperature  
Mean Temperature 56 °F -  
Max Temperature 64 °F 64 °F 75 °F (2014)
Min Temperature 48 °F 48 °F 41 °F (2003)
Degree Days  
Heating Degree Days 10    
Growing Degree Days 6 (Base 50)    
Moisture  
Dew Point 48 °F    
Average Humidity 76    
Maximum Humidity 93    
Minimum Humidity 58    
Precipitation  
Precipitation 0.00 in - - ()
Sea Level Pressure  
Sea Level Pressure 30.02 in    
Wind  
Wind Speed 6 mph (WNW)    
Max Wind Speed 14 mph    
Max Gust Speed 16 mph    
Averages and records for this station are not official NWS values.
T = Trace of Precipitation, MM = Missing Value Source: NWS Daily Summary

Daily Weather History Graph

Daily Weather History Graph

Search for Another Location

Airport or City:

Trip Planner

Search our weather history database for the weather conditions in past years. The results will help you decide how hot, cold, wet, or windy it might be!

Date:

Astronomy

Sep. 29, 2012 Rise Set
Actual Time 7:27 AM EDT 7:14 PM EDT
Civil Twilight 6:58 AM EDT 7:43 PM EDT
Nautical Twilight 6:24 AM EDT 8:16 PM EDT
Astronomical Twilight 5:50 AM EDT 8:50 PM EDT
Moon 6:45 PM EDT (9/29) 6:57 AM EDT (9/29)
Length of Visible Light 12h 45m
Length of Day
11h 47m
Full, 100% of the Moon is Illuminated
Sep 29
Full
Sep 29
Full
Oct 8
Last Quarter
Oct 15
New
Oct 21
First Quarter

Hourly Weather History & Observations

Time (EDT) Temp. Dew Point Humidity Pressure Visibility Wind Dir Wind Speed Gust Speed Precip Events Conditions
12:51 AM 48.0 °F 45.0 °F 89% 30.09 in - SW 6.9 mph - N/A   Unknown
1:51 AM 48.0 °F 45.0 °F 89% 30.08 in - SW 4.6 mph - N/A   Unknown
2:51 AM 48.0 °F 45.0 °F 89% 30.07 in - SW 4.6 mph - N/A   Unknown
3:51 AM 48.9 °F 45.0 °F 86% 30.05 in - SW 5.8 mph - N/A   Unknown
4:51 AM 48.9 °F 45.0 °F 86% 30.04 in - WSW 5.8 mph - N/A   Unknown
5:51 AM 48.9 °F 45.0 °F 86% 30.04 in - WSW 6.9 mph - N/A   Unknown
6:51 AM 48.0 °F 45.0 °F 89% 30.04 in - WSW 5.8 mph - N/A   Unknown
7:51 AM 48.9 °F 46.0 °F 90% 30.05 in - WSW 5.8 mph - N/A   Unknown
8:51 AM 48.9 °F 46.9 °F 93% 30.06 in - WSW 4.6 mph - N/A   Unknown
9:51 AM 55.9 °F 48.9 °F 77% 30.05 in - WSW 3.5 mph - N/A   Unknown
10:51 AM 62.1 °F 46.9 °F 58% 30.03 in - Variable 4.6 mph - N/A   Unknown
11:51 AM 62.1 °F 50.0 °F 65% 30.03 in - Variable 3.5 mph - N/A   Unknown
12:51 PM 63.0 °F 48.0 °F 58% 30.01 in - Variable 4.6 mph - N/A   Unknown
1:51 PM 63.0 °F 53.1 °F 70% 30.00 in - Calm Calm - N/A   Unknown
2:51 PM 63.0 °F 52.0 °F 67% 29.99 in - Calm Calm - N/A   Unknown
3:51 PM 61.0 °F 50.0 °F 67% 29.99 in - Variable 4.6 mph - N/A   Unknown
4:51 PM 60.1 °F 50.0 °F 69% 29.98 in - North 4.6 mph - N/A   Unknown
5:51 PM 59.0 °F 50.0 °F 72% 29.98 in - North 6.9 mph - N/A   Unknown
6:51 PM 57.9 °F 50.0 °F 75% 29.98 in - NNE 6.9 mph - N/A   Unknown
7:51 PM 59.0 °F 48.9 °F 69% 29.98 in - NNE 12.7 mph - N/A   Unknown
8:51 PM 57.9 °F 48.9 °F 72% 29.98 in - North 6.9 mph - N/A   Unknown
9:51 PM 57.9 °F 50.0 °F 75% 29.97 in - North 5.8 mph - N/A   Unknown
10:51 PM 59.0 °F 50.0 °F 72% 29.96 in - NNE 12.7 mph 16.1 mph N/A   Unknown
11:51 PM 59.0 °F 50.0 °F 72% 29.96 in - NE 13.8 mph - N/A   Unknown